User: anonymous   Login
Location: ČR
(50.0000°N, 15.0000°E)
Time: 10:39:46
(UTC+01:00)
Language:

Tiangong - Orbit

View from above orbital plane
View from above orbital plane
View from above satellite
View from above satellite

Ground track
Ground track

The orbit data is extracted from the following two-line orbital elements,

1 48274U 21035A   24063.84037950  .00039886  00000-0  42911-3 0  9991
2 48274  41.4693   6.9002 0006665  94.4211 265.7391 15.62939018162607
Epoch (UTC): 03 March 2024 20:10:08
Eccentricity: 0.0006665
inclination: 41.4693°
perigee height: 374 km
apogee height: 383 km
right ascension of ascending node: 6.9002°
argument of perigee: 94.4211°
revolutions per day: 15.62939018
mean anomaly at epoch: 265.7391°
orbit number at epoch: 16260

The dashed part of the orbit path shows where the satellite is in the earth's shadow,  

DLR